Regional Weather Roundup
Issued by NWS

Home | Current Version | Previous Version | Text Only | Print | Product List | Glossary Off
Versions: 1 2 3 4 5 6 7 8 9 10 11 12 13 14 15 16 17 18 19 20 21 22 23 24 25 26 27 28 29 30 31 32 33 34 35 36 37 38 39 40 41 42 43 44 45 46 47 48 49 50

000
ASUS43 KOAX 291902
RWRNE

WEATHER ROUNDUP FOR NEBRASKA
NATIONAL WEATHER SERVICE OMAHA NE
100 PM CST THU JAN 29 2015

NOTES: SATELLITE DATA IS BEING USED TO AUGMENT CLOUD COVER ABOVE
       12000 FEET.
       "FAIR" INDICATES FEW OR NO CLOUDS BELOW 12,000 FEET WITH NO
       SIGNIFICANT WEATHER AND/OR OBSTRUCTIONS TO VISIBILITY.

  * THESE STATIONS DO NOT REPORT WEATHER SUCH AS RAIN...SNOW OR FOG.

NEZ001>004-019>022-054>056-292000-
NEBRASKA PANHANDLE

CITY           SKY/WX    TMP DP  RH WIND       PRES   REMARKS
SCOTTSBLUFF    SUNNY     45  20  36 W8        30.48F
ALLIANCE       SUNNY     41  20  43 N9        30.46F
CHADRON        SUNNY     42  17  36 N8        30.48F
SIDNEY         SUNNY     43  12  28 N12       30.48F
$$

NEZ057>060-069>072-079>082-292000-
SOUTHWEST NEBRASKA

CITY           SKY/WX    TMP DP  RH WIND       PRES   REMARKS
NORTH PLATTE   SUNNY     42  23  46 N10       30.48F
IMPERIAL       SUNNY     41  25  53 NW10      30.49F
MCCOOK         SUNNY     44  23  43 NW18      30.49F
$$

NEZ005>010-023>029-035>040-094-292000-
NORTH CENTRAL NEBRASKA

CITY           SKY/WX    TMP DP  RH WIND       PRES   REMARKS
VALENTINE      SUNNY     41  22  46 NW15      30.46F
BROKEN BOW     SUNNY     42  24  49 NW16      30.45F
ORD            SUNNY     42  22  44 N20G28    30.44F
$$

NEZ041-046>049-061>064-073>077-083>087-292000-
SOUTH CENTRAL NEBRASKA

CITY           SKY/WX    TMP DP  RH WIND       PRES   REMARKS
GRAND ISLAND   MOSUNNY   43  25  49 N23G31    30.46F
HASTINGS       FAIR      43  23  45 N21       30.45F
KEARNEY *      MOSUNNY   43  23  45 N15G23    30.46F
$$

NEZ011>018-030>034-042>045-292000-
NORTHEAST NEBRASKA

CITY           SKY/WX    TMP DP  RH WIND       PRES   REMARKS
NORFOLK        CLOUDY    38  26  62 N21       30.42S WCI  28
COLUMBUS *     CLOUDY    39  23  52 N22G30    30.45S WCI  29
TEKAMAH        CLOUDY    38  25  59 N25       30.42S WCI  27
$$

NEZ050>053-065>068-078-088>093-292000-
SOUTHEAST NEBRASKA

CITY           SKY/WX    TMP DP  RH WIND       PRES   REMARKS
LINCOLN        CLOUDY    40  26  57 N25G33    30.44R WCI  29
OMAHA EPPLEY   CLOUDY    39  26  59 N23G33    30.39S WCI  28
FALLS CITY     CLOUDY    40  25  55 N17G35    30.39R WCI  31
$$

NEZ044-045-051>053-067-292000-
OMAHA AREA

CITY           SKY/WX    TMP DP  RH WIND       PRES   REMARKS
OMAHA EPPLEY   CLOUDY    39  26  59 N23G33    30.39S WCI  28
OFFUTT AFB     CLOUDY    39  25  57 NW18      30.39F WCI  30
$$


USA.gov is the U.S. government's official web portal to all federal, state and local government web resources and services.